#timestamp,LO_Frequency,Hit,StdDev 
1658563215.4,286047000.1,N
1658563235.3,286047002.8,N
1658563255.1,286047001.8,N
1658563256.0,286047001.8,N
1658563275.8,286047004.1,N
1658563295.7,286047001.7,N
1658563315.5,286047005.6,N
1658563335.3,286047006.0,N
1658563355.2,286047002.7,N
1658563375.0,286047002.5,N
1658563375.9,286047002.5,N
1658563395.8,286047002.0,N
1658563415.6,286047004.2,N
1658563435.4,286046999.8,N
1658563455.3,286047001.3,N
1658563475.1,286047006.0,Y
1658563495.9,286047001.6,P
1658563515.7,286047000.1,N
1658563535.5,286047002.6,N
1658563555.4,286047001.9,N
1658563575.2,286047001.6,N
1658563595.0,286047005.5,Y
1658563595.9,286047005.5,P
1658563615.8,286047002.0,N
1658563635.6,286047000.7,N
1658563655.5,286047004.4,N
1658563675.3,286047001.7,N
1658563695.1,286047005.9,Y
1658563715.9,286047002.4,P
1658563735.7,286047000.2,N
1658563755.5,286046999.9,N
1658563775.4,286046999.7,N
1658563795.2,286047000.6,N
1658563815.1,286046998.1,N
1658563816.0,286046998.1,N
1658563835.8,286047001.6,N
1658563855.6,286047000.1,N
1658563875.5,286047001.0,N
1658563895.3,286047002.1,N
1658563915.1,286047001.0,N
1658563935.9,286046998.1,N
1658563955.7,286047000.5,N
1658563975.6,286046998.9,N
1658563995.4,286046996.6,N
1658564015.2,286047000.2,N
1658564035.1,286047000.3,N
1658564036.0,286047000.3,N
1658564055.8,286046999.9,N
1658564075.7,286047001.7,N
1658564095.5,286047001.3,N
1658564115.3,286047005.6,Y
1658564135.2,286047003.3,P
1658564155.0,286047002.4,N
1658564155.9,286047002.4,N
1658564175.7,286046999.9,N
1658564195.6,286047002.5,N
1658564215.4,286047001.1,N
1658564235.3,286047000.7,N
1658564255.1,286047000.4,N
1658564256.0,286047000.4,N
1658564275.8,286047002.4,N
1658564295.7,286047004.3,Y
1658564315.5,286047002.3,P
1658564335.4,286046998.9,N
1658564355.2,286046998.2,N
1658564375.0,286046998.8,N
1658564375.9,286046998.8,N
1658564395.8,286047001.1,N
1658564415.6,286046997.8,N
1658564435.4,286046997.2,N
1658564455.3,286046997.4,N
1658564475.1,286046997.7,N
1658564495.9,286046999.3,N
1658564515.7,286046997.0,N
1658564535.5,286046996.0,N
1658564555.4,286046994.9,N
1658564575.2,286046995.4,N
1658564595.0,286046999.3,N
1658564595.9,286046999.3,N
1658564615.8,286046999.1,N
1658564635.6,286046998.2,N
1658564655.5,286047001.2,N
1658564675.3,286047000.7,N
1658564695.1,286047000.9,N
1658564715.9,286046998.4,N
1658564735.7,286046997.9,N
1658564755.5,286046997.6,N
1658564775.4,286046997.6,N
1658564795.2,286046994.9,N
1658564815.1,286046995.5,N
1658564816.0,286046995.5,N
1658564835.8,286046997.1,N
1658564855.6,286046996.8,N
1658564875.5,286046998.7,N
1658564895.3,286046998.1,N
1658564915.2,286046998.9,N
1658564935.9,286046995.5,N
1658564955.7,286046995.0,N
1658564975.6,286046999.1,N
1658564995.4,286046996.6,N
1658565015.2,286046997.7,N
1658565035.1,286046997.0,N
1658565036.0,286046997.0,N
1658565055.8,286046999.0,N
1658565075.7,286046996.6,N
1658565095.5,286046998.9,N
1658565115.3,286046999.4,N
1658565135.2,286046998.7,N
1658565155.0,286046999.4,N
1658565155.9,286046999.4,N
1658565175.8,286046999.4,N
1658565195.6,286046999.7,N
1658565215.4,286046998.2,N
1658565235.3,286046997.0,N
1658565255.1,286046998.3,N
1658565275.8,286046999.4,N
1658565295.7,286046998.1,N
1658565315.5,286047000.4,N
1658565335.4,286046998.7,N
1658565355.2,286046996.5,N
1658565375.0,286046998.7,N
1658565375.9,286046998.7,N
1658565395.8,286046995.3,Y
1658565415.6,286046996.9,P
1658565435.4,286046998.3,N
1658565455.3,286046998.3,N
1658565475.1,286046999.0,N
1658565495.9,286046997.7,Y
1658565515.7,286046999.7,P
1658565535.5,286046998.1,N
1658565555.4,286046999.6,N
1658565605.2,286046998.2,E
1658565615.2,286046999.0,N
1658565635.9,286047001.2,P
1658565655.7,286046998.7,N
1658565675.6,286047001.0,N
1658565695.4,286046999.7,N
1658565715.3,286047002.0,N
1658565735.1,286047004.0,Y
1658565736.0,286047004.0,P
1658565755.8,286047002.4,N
1658565775.7,286047000.6,N
1658565795.5,286047001.2,N
1658565815.3,286047002.6,N
1658565835.2,286047002.6,N
1658565855.0,286047001.9,N
1658565855.9,286047001.9,N
1658565875.8,286047002.3,N
1658565895.6,286047000.5,N
1658565915.4,286047004.4,Y
1658565935.3,286046998.2,P
1658565955.1,286047000.7,N
1658565975.8,286046998.9,N
1658565995.7,286047000.8,N
1658566015.5,286047000.8,N
1658566035.4,286046999.6,N
1658566055.2,286046998.6,N
1658566075.0,286047002.2,N
1658566075.9,286047002.2,N
1658566095.8,286047001.4,N
1658566115.6,286047000.4,N
1658566135.4,286047003.5,N
1658566155.3,286047003.6,N
1658566175.1,286047001.7,N
1658566195.9,286047001.7,N
1658566215.7,286047000.2,N
1658566235.5,286046999.0,N
1658566255.4,286046998.1,N
1658566275.2,286046996.6,N
1658566295.0,286046997.4,N
1658566296.0,286046997.4,N
1658566315.8,286046995.5,N
1658566335.6,286046996.0,N
1658566355.5,286046997.9,N
1658566375.3,286046996.5,N
1658566395.1,286047001.1,N
1658566415.9,286047001.1,N
1658566435.7,286046998.2,N
1658566455.5,286046999.2,N
1658566475.4,286046997.0,N
1658566495.2,286046999.1,N
1658566515.1,286047000.7,N
1658566516.0,286047000.7,N
1658566535.8,286047000.4,N
1658566555.6,286047000.4,N
1658566575.5,286047000.4,N
1658566595.3,286047000.6,N
1658566615.2,286046997.6,N
1658566635.9,286046997.1,N
1658566655.7,286047001.8,N
1658566675.6,286047000.7,N
1658566695.4,286046999.1,N
1658566715.2,286046998.0,N
1658566735.1,286046999.1,N
1658566736.0,286046999.1,N
1658566755.8,286046998.9,N
1658566775.7,286047000.2,N
1658566795.5,286046999.7,N
